Weather Roundup
Issued by NWS Springfield, MO

Home | Current Version | Previous Version | Text Only | Print | Product List | Glossary On
Versions: 1 2 3 4 5 6 7 8 9 10 11 12 13 14 15 16 17 18 19 20 21 22 23 24 25 26 27 28 29 30 31 32 33 34 35 36 37 38 39 40 41 42 43 44 45 46 47 48 49 50
000
NZUS99 KSGF 200907
HRRSGF

HOURLY WEATHER
NATIONAL WEATHER SERVICE SPRINGFIELD MO
400 AM CDT WED SEP 20 2017

......SGF CWA......

CITY           SKY/WX    TMP DP  RH WIND       PRES   REMARKS
SPRINGFIELD    CLEAR     73  69  87 S13       29.84F
JOPLIN         CLEAR     76  72  87 S15G24    29.80S
WEST PLAINS    CLEAR     71  69  93 S6        29.91S
ROLLA          CLEAR     72  69  90 S10       29.87F
OSAGE BEACH    CLEAR     71  68  90 SE7       29.84F
BRANSON        CLEAR     68  68 100 CALM      29.88S

......SURROUNDING SGF CWA......

CITY           SKY/WX    TMP DP  RH WIND       PRES   REMARKS
CHANUTE        CLEAR     75  70  84 S13       29.76F
COFFEYVILLE    CLEAR     77  71  82 S16G22    29.76S
EMPORIA        MOCLDY    74  68  81 S21G28    29.69F
GROVE OK       CLEAR     77  72  83 S3        29.83R
ROGERS AR      CLEAR     72  69  90 SE6       29.87S
SILOAM SPRINGS CLEAR     74  70  87 S9        29.85F
HARRISON AR    CLEAR     74  71  91 S8        29.88F
NEAR YELLVILLE CLEAR     71  69  93 CALM      29.88S

......KANSAS AND MISSOURI......

CITY           SKY/WX    TMP DP  RH WIND       PRES   REMARKS
KANSAS CTY INT CLEAR     76  69  79 S14G23    29.71S
DOWNTOWN KC    CLEAR     78  70  76 S9        29.71S
COLUMBIA       CLEAR     74  69  85 S14G20    29.82F
SEDALIA        CLEAR     75  70  84 S10       29.79F
ST JOSEPH      MOCLDY    77  70  79 S14       29.68R
ST LOUIS       CLEAR     75  69  81 S7        29.86F
SPIRIT OF STL  CLEAR     74  68  81 S6        29.84S
KIRKSVILLE     CLEAR     73  67  81 S12       29.78S
WICHITA        MOCLDY    76  68  76 S17       29.69F
TOPEKA         CLOUDY    78  71  79 S16G24    29.67F
OLATHE         CLEAR     74  70  87 S13G20    29.73F

......TENNESSEE......

CITY           SKY/WX    TMP DP  RH WIND       PRES   REMARKS
MEMPHIS        CLEAR     76  72  87 S8        29.93S
NASHVILLE      CLEAR     69  65  86 CALM      29.98S

......ARKANSAS.......

CITY           SKY/WX    TMP DP  RH WIND       PRES   REMARKS
FAYETTEVILLE   CLEAR     73  72  96 CALM      29.86F
FT SMITH       CLEAR     75  72  90 NE5       29.84S
LITTLE ROCK    CLOUDY    73  73 100 CALM      29.90S

......OKLAHOMA.......

CITY           SKY/WX    TMP DP  RH WIND       PRES   REMARKS
TULSA          PTCLDY    78  72  81 S10       29.76F
PONCA CITY     CLOUDY    78  67  68 S10       29.74R
MCALESTER      PTCLDY    80  72  76 S10       29.83S
OKLAHOMA CITY  PTCLDY    71  61  70 S13       29.78F

......IOWA............

CITY           SKY/WX    TMP DP  RH WIND       PRES   REMARKS
DES MOINES     MOCLDY    76  68  76 S13       29.67F
QUAD CITIES    PTCLDY    69  63  81 SE7       29.82S

......ILLINOIS........

CITY           SKY/WX    TMP DP  RH WIND       PRES   REMARKS
QUINCY         CLEAR     73  66  78 S6        29.82S
CHICAGO        CLEAR     64  62  93 SE3       29.91R FOG



USA.gov is the U.S. government's official web portal to all federal, state and local government web resources and services.